TimeCDT,TemperatureF,Dew PointF,Humidity,Sea Level PressureIn,VisibilityMPH,Wind Direction,Wind SpeedMPH,Gust SpeedMPH,PrecipitationIn,Events,Conditions,WindDirDegrees,DateUTC
12:53 AM,33.1,30.9,92,29.68,6.0,North,6.9,-,0.00,,Overcast,10,2014-04-04 05:53:00
1:53 AM,33.1,30.9,92,29.65,5.0,NNE,6.9,-,N/A,,Overcast,30,2014-04-04 06:53:00
2:08 AM,33.1,30.9,92,29.61,4.0,North,6.9,-,N/A,,Overcast,10,2014-04-04 07:08:00
2:53 AM,33.1,30.9,92,29.61,4.0,North,6.9,-,N/A,,Overcast,350,2014-04-04 07:53:00
3:08 AM,33.1,30.9,92,29.58,3.0,NNE,4.6,-,N/A,,Overcast,20,2014-04-04 08:08:00
3:21 AM,33.1,30.9,92,29.57,2.5,North,6.9,-,0.00,Rain,Light Rain,360,2014-04-04 08:21:00
3:30 AM,33.1,30.9,92,29.56,1.8,North,6.9,-,0.01,Rain,Light Rain,10,2014-04-04 08:30:00
3:43 AM,33.1,30.9,92,29.55,2.5,North,8.1,-,0.01,Rain,Light Rain,10,2014-04-04 08:43:00
3:48 AM,33.8,30.2,87,29.57,3.0,NW,8.1,-,0.01,Rain,Light Rain,310,2014-04-04 08:48:00
3:53 AM,33.1,30.9,92,29.62,3.0,West,9.2,-,0.01,Rain,Light Rain,280,2014-04-04 08:53:00
4:17 AM,33.1,30.9,92,29.56,3.0,NNW,12.7,-,0.01,Rain,Light Rain,340,2014-04-04 09:17:00
4:20 AM,33.1,30.9,92,29.55,2.5,North,10.4,-,0.01,Snow,Light Snow,350,2014-04-04 09:20:00
4:43 AM,33.1,30.9,92,29.54,3.0,North,9.2,-,0.01,,Overcast,350,2014-04-04 09:43:00
4:53 AM,33.1,30.9,92,29.57,2.5,NNW,9.2,-,0.02,Snow,Light Snow,340,2014-04-04 09:53:00
5:04 AM,33.1,30.9,92,29.55,2.0,NNW,8.1,-,0.00,Snow,Light Snow,340,2014-04-04 10:04:00
5:35 AM,33.1,30.9,92,29.55,3.0,NNW,9.2,-,0.01,Snow,Light Snow,330,2014-04-04 10:35:00
5:43 AM,33.1,30.9,92,29.55,2.5,NNW,10.4,-,0.01,Snow,Light Snow,330,2014-04-04 10:43:00
5:53 AM,33.1,30.9,92,29.57,2.0,NNW,11.5,-,0.02,Snow,Light Snow,330,2014-04-04 10:53:00
6:09 AM,33.1,30.9,92,29.55,2.5,NNW,9.2,-,0.00,Snow,Light Snow,330,2014-04-04 11:09:00
6:41 AM,33.1,30.9,92,29.56,3.0,NW,10.4,-,0.00,Snow,Light Snow,320,2014-04-04 11:41:00
6:48 AM,33.8,30.2,87,29.56,2.5,NW,10.4,-,0.00,Snow,Light Snow,320,2014-04-04 11:48:00
6:53 AM,33.1,30.9,92,29.59,2.5,NW,12.7,-,0.00,Snow,Light Snow,320,2014-04-04 11:53:00
7:04 AM,33.1,30.9,92,29.57,6.0,NNW,11.5,-,0.00,Snow,Light Snow,330,2014-04-04 12:04:00
7:53 AM,33.1,30.9,92,29.60,4.0,NW,15.0,-,0.01,Snow,Light Snow,320,2014-04-04 12:53:00
8:16 AM,33.1,30.9,92,29.58,2.5,NW,15.0,-,0.00,Snow,Light Snow,320,2014-04-04 13:16:00
8:29 AM,33.1,30.9,92,29.57,2.0,NW,15.0,-,0.00,Snow,Light Snow,320,2014-04-04 13:29:00
8:42 AM,33.1,30.0,89,29.58,2.0,NW,20.7,-,0.00,Snow,Light Snow,320,2014-04-04 13:42:00
8:46 AM,32.0,30.0,92,29.58,1.8,NW,18.4,-,0.00,Snow,Light Snow,320,2014-04-04 13:46:00
8:53 AM,32.0,30.0,92,29.61,1.8,NW,17.3,-,0.01,Snow,Light Snow,320,2014-04-04 13:53:00
9:16 AM,32.0,28.9,88,29.58,2.5,NW,17.3,-,0.00,Snow,Light Snow,320,2014-04-04 14:16:00
9:28 AM,32.0,28.9,88,29.59,4.0,NW,15.0,-,0.00,Snow,Light Snow,320,2014-04-04 14:28:00
9:53 AM,32.0,28.0,85,29.64,6.0,NW,16.1,-,0.00,Snow,Light Snow,320,2014-04-04 14:53:00
10:08 AM,32.0,28.9,88,29.62,2.0,NW,13.8,-,0.01,Snow,Light Snow,320,2014-04-04 15:08:00
10:22 AM,32.0,28.0,85,29.63,4.0,NW,16.1,-,0.01,Snow,Light Snow,310,2014-04-04 15:22:00
10:53 AM,32.0,28.0,85,29.67,3.0,NW,19.6,-,0.01,Snow,Light Snow,310,2014-04-04 15:53:00
10:57 AM,32.0,28.0,85,29.64,1.5,NW,18.4,-,0.00,Snow,Light Snow,310,2014-04-04 15:57:00
11:04 AM,32.0,28.9,88,29.64,0.8,NW,17.3,-,0.00,Snow,Light Snow,320,2014-04-04 16:04:00
11:13 AM,32.0,28.9,88,29.65,1.2,NW,18.4,-,0.00,Snow,Light Snow,320,2014-04-04 16:13:00
11:22 AM,32.0,28.9,88,29.65,1.2,NW,18.4,-,0.00,Snow,Light Snow,310,2014-04-04 16:22:00
11:53 AM,33.1,30.0,89,29.70,1.2,NW,18.4,-,0.00,Snow,Light Snow,310,2014-04-04 16:53:00
12:28 PM,33.1,30.9,92,29.68,1.2,NW,19.6,-,0.01,Snow,Light Snow,320,2014-04-04 17:28:00
12:45 PM,33.1,30.0,89,29.69,1.5,NW,23.0,28.8,0.01,Snow,Light Snow,310,2014-04-04 17:45:00
12:51 PM,33.8,30.2,87,29.68,2.0,NW,20.7,-,0.01,Snow,Light Snow,310,2014-04-04 17:51:00
12:53 PM,34.0,30.0,85,29.72,2.0,NW,24.2,31.1,0.01,Snow,Light Snow,310,2014-04-04 17:53:00
1:06 PM,34.0,30.0,85,29.70,1.8,NW,20.7,-,0.00,Snow,Light Snow,320,2014-04-04 18:06:00
1:39 PM,35.1,30.9,85,29.71,2.0,NW,24.2,32.2,0.00,Snow,Light Snow,320,2014-04-04 18:39:00
1:42 PM,35.1,30.9,85,29.71,2.5,NW,19.6,32.2,0.00,Snow,Light Snow,320,2014-04-04 18:42:00
1:53 PM,35.1,30.9,85,29.75,4.0,NW,23.0,32.2,0.00,Snow,Light Snow,320,2014-04-04 18:53:00
2:53 PM,36.0,30.0,79,29.78,6.0,NW,27.6,34.5,0.00,,Overcast,320,2014-04-04 19:53:00
3:24 PM,37.9,30.0,73,29.78,10.0,NNW,20.7,29.9,0.00,Rain,Light Rain,330,2014-04-04 20:24:00
3:34 PM,37.0,30.0,76,29.79,10.0,NW,20.7,26.5,0.00,,Overcast,320,2014-04-04 20:34:00
3:53 PM,37.9,30.0,73,29.83,10.0,NW,18.4,28.8,0.00,,Overcast,320,2014-04-04 20:53:00
4:53 PM,37.0,28.0,70,29.87,10.0,NW,20.7,31.1,0.00,,Overcast,320,2014-04-04 21:53:00
5:41 PM,37.9,27.0,65,29.87,10.0,NW,18.4,-,N/A,,Overcast,320,2014-04-04 22:41:00
5:53 PM,37.9,28.0,68,29.91,10.0,NW,17.3,26.5,N/A,,Overcast,310,2014-04-04 22:53:00
6:53 PM,37.9,27.0,65,29.94,10.0,NW,16.1,-,N/A,,Mostly Cloudy,310,2014-04-04 23:53:00
7:53 PM,36.0,26.1,67,29.96,10.0,NW,12.7,-,N/A,,Scattered Clouds,320,2014-04-05 00:53:00
8:53 PM,37.0,26.1,65,30.01,10.0,NW,11.5,-,N/A,,Overcast,310,2014-04-05 01:53:00
9:53 PM,36.0,26.1,67,30.04,10.0,WNW,9.2,-,N/A,,Mostly Cloudy,290,2014-04-05 02:53:00
10:53 PM,34.0,26.1,73,30.06,10.0,NNW,3.5,-,N/A,,Clear,340,2014-04-05 03:53:00
11:53 PM,28.9,24.1,82,30.08,10.0,Calm,Calm,-,N/A,,Clear,0,2014-04-05 04:53:00